Terminal Aerodrome Forecast
Issued by NWS Duluth, MN

Home | Current Version | Previous Version | Text Only | Print | Product List | Glossary On
Versions: 1 2 3 4 5 6 7 8 9 10 11 12 13 14 15 16 17 18 19 20 21 22 23 24 25 26 27 28 29 30 31 32 33 34
000
FTUS43 KDLH 290400 AAA
TAFDLH
TAF AMD
KDLH 290406Z 2904/2924 10006KT P6SM FEW020 FEW060
      TEMPO 2904/2908 2SM -RA BR OVC014
     FM290800 13006KT 2SM -RA BR OVC006
     FM291600 13006KT 3SM BR VCSH OVC008
     FM292100 10006KT 5SM BR VCSH OVC015=

USA.gov is the U.S. government's official web portal to all federal, state and local government web resources and services.